BAW8648 LWSK-LTFJ

Flight info

Callsign BAW8648
Flight time N/A
Altitude 37000
Route SIN2C SIN T215 VELBA T343 MOREK DCT USALI DCT GERGI L614 ADORU UM19 IBODU IBODU1H
Aircraft A21N/M-SDE3FGIJ1LRWXYZ/SB1G1

Departure

Time 2026-04-24 14:39
Airport Skopje International Airport (LWSK)

Arrival

Time N/A
Airport Istanbul Sabiha Gökçen International Airport (LTFJ)
Time Latitude Longitude Altitude Speed Heading
2026-04-24 14:10 41.96143 21.62559 799 ft 0 kts 75°
2026-04-24 14:27 41.96142 21.62554 798 ft 3 kts 75°
2026-04-24 14:28 41.96135 21.62520 798 ft 4 kts 75°
2026-04-24 14:28 41.96128 21.62485 798 ft 4 kts 75°
2026-04-24 14:28 41.96122 21.62455 798 ft 3 kts 75°
2026-04-24 14:28 41.96121 21.62430 797 ft 4 kts 137°
2026-04-24 14:29 41.96141 21.62419 797 ft 4 kts 165°
2026-04-24 14:29 41.96156 21.62413 797 ft 1 kts 165°
2026-04-24 14:32 41.96144 21.62418 797 ft 3 kts 165°
2026-04-24 14:33 41.96115 21.62428 797 ft 6 kts 165°
2026-04-24 14:33 41.96067 21.62445 797 ft 9 kts 165°
2026-04-24 14:33 41.95999 21.62470 797 ft 12 kts 165°
2026-04-24 14:33 41.95910 21.62502 796 ft 15 kts 165°
2026-04-24 14:34 41.95806 21.62538 794 ft 16 kts 165°
2026-04-24 14:34 41.95694 21.62577 792 ft 17 kts 165°
2026-04-24 14:34 41.95572 21.62620 791 ft 19 kts 165°
2026-04-24 14:34 41.95451 21.62664 788 ft 18 kts 165°
2026-04-24 14:35 41.95332 21.62705 787 ft 18 kts 166°
2026-04-24 14:35 41.95230 21.62740 785 ft 14 kts 165°
2026-04-24 14:35 41.95156 21.62737 784 ft 11 kts 222°
2026-04-24 14:35 41.95129 21.62635 784 ft 13 kts 255°
2026-04-24 14:36 41.95097 21.62533 787 ft 10 kts 217°
2026-04-24 14:36 41.95023 21.62540 786 ft 12 kts 165°
2026-04-24 14:36 41.94938 21.62570 785 ft 13 kts 165°
2026-04-24 14:36 41.94844 21.62603 785 ft 15 kts 166°
2026-04-24 14:37 41.94763 21.62646 784 ft 8 kts 123°
2026-04-24 14:37 41.94735 21.62709 782 ft 7 kts 143°
2026-04-24 14:37 41.94694 21.62721 781 ft 5 kts 197°
2026-04-24 14:37 41.94677 21.62679 781 ft 5 kts 273°
2026-04-24 14:38 41.94698 21.62654 782 ft 6 kts 342°
2026-04-24 14:38 41.94707 21.62650 782 ft 0 kts 345°
2026-04-24 14:38 41.94740 21.62639 784 ft 24 kts 345°
2026-04-24 14:38 41.95150 21.62496 786 ft 96 kts 345°
2026-04-24 14:39 41.95999 21.62201 793 ft 151 kts 345°
2026-04-24 14:39 41.97113 21.61819 1069 ft 167 kts 345°
2026-04-24 14:39 41.98230 21.61465 1746 ft 164 kts 346°
2026-04-24 14:39 41.99357 21.61110 2325 ft 170 kts 345°
2026-04-24 14:40 42.00565 21.60857 2851 ft 188 kts 359°
2026-04-24 14:40 42.01904 21.61224 3532 ft 207 kts 23°
2026-04-24 14:40 42.03039 21.62463 4350 ft 216 kts 54°
2026-04-24 14:40 42.03454 21.64386 5289 ft 220 kts 91°
2026-04-24 14:41 42.02913 21.66298 6233 ft 224 kts 128°
2026-04-24 14:41 42.01620 21.67453 7138 ft 228 kts 163°
2026-04-24 14:41 42.00033 21.67564 8057 ft 231 kts 185°
2026-04-24 14:41 41.98412 21.67387 8981 ft 235 kts 185°
2026-04-24 14:42 41.96760 21.67320 9853 ft 241 kts 174°
2026-04-24 14:42 41.95222 21.68154 10686 ft 242 kts 139°
2026-04-24 14:42 41.94278 21.69970 11510 ft 238 kts 105°
2026-04-24 14:42 41.94207 21.72142 12306 ft 236 kts 75°
2026-04-24 14:43 41.94879 21.74248 12648 ft 258 kts 60°
2026-04-24 14:43 41.95400 21.76672 12952 ft 287 kts 82°
2026-04-24 14:43 41.95511 21.79443 13256 ft 313 kts 85°
2026-04-24 14:43 41.95596 21.82479 13557 ft 337 kts 85°
2026-04-24 14:44 41.95712 21.85709 13973 ft 353 kts 85°
2026-04-24 14:44 41.95851 21.89038 14690 ft 360 kts 84°
2026-04-24 14:44 41.96005 21.92412 15474 ft 363 kts 84°
2026-04-24 14:44 41.96165 21.95812 16240 ft 367 kts 84°
2026-04-24 14:45 41.96328 21.99254 16983 ft 370 kts 84°
2026-04-24 14:45 41.96494 22.02722 17678 ft 374 kts 84°
2026-04-24 14:45 41.96661 22.06218 18369 ft 377 kts 84°
2026-04-24 14:45 41.96829 22.09753 19044 ft 380 kts 84°
2026-04-24 14:46 41.96998 22.13317 19711 ft 383 kts 84°
2026-04-24 14:46 41.97165 22.16904 20350 ft 386 kts 84°
2026-04-24 14:46 41.97334 22.20518 20987 ft 389 kts 84°
2026-04-24 14:46 41.97503 22.24158 21612 ft 391 kts 84°
2026-04-24 14:47 41.97672 22.27813 22221 ft 394 kts 84°
2026-04-24 14:47 41.97841 22.31492 22800 ft 396 kts 84°
2026-04-24 14:47 41.98009 22.35203 23371 ft 399 kts 84°
2026-04-24 14:47 41.98022 22.38953 23928 ft 403 kts 88°
2026-04-24 14:48 41.97932 22.42736 24478 ft 406 kts 89°
2026-04-24 14:48 41.97831 22.46495 25000 ft 408 kts 89°
2026-04-24 14:48 41.97727 22.50315 25532 ft 410 kts 88°
2026-04-24 14:48 41.97623 22.54156 26057 ft 412 kts 88°
2026-04-24 14:49 41.97518 22.58006 26570 ft 413 kts 88°
2026-04-24 14:49 41.97414 22.61862 27056 ft 414 kts 88°
2026-04-24 14:49 41.97308 22.65743 27529 ft 416 kts 88°
2026-04-24 14:49 41.97199 22.69634 27981 ft 418 kts 88°
2026-04-24 14:50 41.97090 22.73537 28421 ft 419 kts 88°
2026-04-24 14:50 41.96977 22.77461 28845 ft 421 kts 88°
2026-04-24 14:50 41.96936 22.81395 29246 ft 419 kts 83°
2026-04-24 14:50 41.97339 22.85245 29633 ft 415 kts 73°
2026-04-24 14:51 41.98290 22.88877 30100 ft 409 kts 62°
2026-04-24 14:51 41.99733 22.92149 30600 ft 405 kts 52°
2026-04-24 14:51 42.01582 22.94982 31026 ft 403 kts 45°
2026-04-24 14:51 42.03575 22.97616 31527 ft 401 kts 44°
2026-04-24 14:52 42.05570 23.00239 31964 ft 399 kts 44°
2026-04-24 14:52 42.07547 23.02857 32366 ft 399 kts 44°
2026-04-24 14:52 42.09521 23.05485 32731 ft 399 kts 44°
2026-04-24 14:52 42.11488 23.08111 33093 ft 398 kts 44°
2026-04-24 14:53 42.13453 23.10744 33410 ft 398 kts 44°
2026-04-24 14:53 42.15358 23.13454 33710 ft 399 kts 50°
2026-04-24 14:53 42.16829 23.16634 33993 ft 402 kts 62°
2026-04-24 14:53 42.17879 23.20135 34253 ft 404 kts 66°
2026-04-24 14:54 42.18849 23.23691 34481 ft 405 kts 67°
2026-04-24 14:54 42.19822 23.27265 34707 ft 407 kts 67°
2026-04-24 14:54 42.20813 23.30844 34928 ft 408 kts 66°
2026-04-24 14:54 42.21814 23.34434 35161 ft 410 kts 66°
2026-04-24 14:55 42.22481 23.36818 35309 ft 411 kts 66°
2026-04-24 14:55 42.23832 23.41657 35605 ft 412 kts 66°
2026-04-24 14:55 42.24845 23.45289 35814 ft 413 kts 66°
2026-04-24 14:55 42.25859 23.48929 35992 ft 415 kts 66°
2026-04-24 14:56 42.26872 23.52582 36173 ft 417 kts 66°
2026-04-24 14:56 42.27889 23.56252 36364 ft 418 kts 67°
2026-04-24 14:56 42.28910 23.59933 36528 ft 419 kts 67°
2026-04-24 14:56 42.29736 23.63720 36699 ft 424 kts 76°
2026-04-24 14:57 42.30029 23.67691 36930 ft 427 kts 86°
2026-04-24 14:57 42.29642 23.75625 36988 ft 426 kts 91°
2026-04-24 14:58 42.29132 23.83601 36957 ft 426 kts 91°
2026-04-24 14:58 42.28669 23.91565 36950 ft 425 kts 91°
2026-04-24 14:59 42.28210 23.99538 36951 ft 425 kts 91°
2026-04-24 14:59 42.27745 24.07493 36943 ft 426 kts 91°
2026-04-24 15:00 42.27273 24.15469 36943 ft 426 kts 91°
2026-04-24 15:00 42.26797 24.23452 36941 ft 426 kts 91°
2026-04-24 15:01 42.26317 24.31404 36940 ft 426 kts 91°
2026-04-24 15:01 42.25827 24.39378 36940 ft 425 kts 91°
2026-04-24 15:02 42.25338 24.47285 36940 ft 426 kts 91°
2026-04-24 15:02 42.24840 24.55266 36941 ft 427 kts 91°
2026-04-24 15:03 42.24417 24.61966 36939 ft 427 kts 91°
2026-04-24 15:03 42.23823 24.71242 36933 ft 427 kts 91°
2026-04-24 15:04 42.23306 24.79235 36930 ft 428 kts 91°
2026-04-24 15:04 42.22782 24.87233 36932 ft 429 kts 91°
2026-04-24 15:05 42.22252 24.95249 36930 ft 429 kts 91°
2026-04-24 15:05 42.21716 25.03282 36937 ft 430 kts 91°
2026-04-24 15:06 42.21175 25.11320 36941 ft 431 kts 91°
2026-04-24 15:06 42.20627 25.19367 36940 ft 431 kts 91°
2026-04-24 15:07 42.20072 25.27422 36940 ft 431 kts 91°
2026-04-24 15:07 42.19511 25.35493 36940 ft 432 kts 91°
2026-04-24 15:08 42.18940 25.43571 36940 ft 433 kts 91°
2026-04-24 15:08 42.18263 25.51655 36937 ft 437 kts 98°
2026-04-24 15:09 42.16280 25.59450 36944 ft 442 kts 108°
2026-04-24 15:09 42.13979 25.67137 36940 ft 442 kts 108°
2026-04-24 15:10 42.11715 25.74770 36940 ft 442 kts 108°
2026-04-24 15:10 42.09443 25.82469 36940 ft 442 kts 108°
2026-04-24 15:11 42.07169 25.90157 36939 ft 442 kts 108°
2026-04-24 15:11 42.04887 25.97842 36949 ft 442 kts 108°
2026-04-24 15:12 42.02988 26.04222 36950 ft 442 kts 109°
2026-04-24 15:12 41.99553 26.15738 36950 ft 442 kts 109°
2026-04-24 15:13 41.97257 26.23412 36950 ft 442 kts 109°
2026-04-24 15:13 41.94953 26.31092 36950 ft 443 kts 109°
2026-04-24 15:14 41.92639 26.38771 36951 ft 443 kts 109°
2026-04-24 15:14 41.90319 26.46450 36949 ft 444 kts 109°
2026-04-24 15:15 41.87985 26.54121 36959 ft 445 kts 111°
2026-04-24 15:15 41.86525 26.57800 36954 ft 449 kts 122°
2026-04-24 15:15 41.84619 26.61136 36963 ft 451 kts 127°
2026-04-24 15:16 41.80599 26.67541 36961 ft 452 kts 128°
2026-04-24 15:16 41.76557 26.74017 36959 ft 453 kts 128°
2026-04-24 15:17 41.72528 26.80508 36960 ft 453 kts 128°
2026-04-24 15:17 41.68505 26.86981 36962 ft 452 kts 127°
2026-04-24 15:18 41.64482 26.93444 36965 ft 451 kts 127°
2026-04-24 15:18 41.60462 26.99882 36970 ft 451 kts 127°
2026-04-24 15:19 41.56454 27.06352 36968 ft 451 kts 125°
2026-04-24 15:19 41.53470 27.13585 36973 ft 448 kts 111°
2026-04-24 15:20 41.50966 27.21249 36970 ft 448 kts 111°
2026-04-24 15:20 41.48451 27.28811 36981 ft 448 kts 111°
2026-04-24 15:21 41.45898 27.36402 36981 ft 449 kts 111°
2026-04-24 15:21 41.43334 27.44004 36979 ft 449 kts 112°
2026-04-24 15:22 41.40764 27.51608 36982 ft 450 kts 112°
2026-04-24 15:23 41.36947 27.63031 36987 ft 449 kts 108°
2026-04-24 15:23 41.35995 27.69735 36988 ft 442 kts 87°